Location: Espelette
(43.3402°N, 1.4474°W)
Time: 04:28:34
(UTC+00:00)

USA 186 - Pass Details

Date: 19 May 2025
Orbit: 338 x 359 km, 97.0° (Epoch: 19 May)

Event Time Altitude Azimuth Distance (km) Brightness Sun altitude
Exits shadow 20:32:41 - 193° (SSW) 2,028 4.9 -10.5°
Reaches altitude 10° 20:34:36 10° 208° (SSW) 1,280 4.1 -10.8°
Maximum altitude 20:36:50 23° 264° (W) 794 3.7 -11.1°
Drops below altitude 10° 20:39:05 10° 319° (NW) 1,293 5.8 -11.4°
Sets 20:41:15 0° 335° (NNW) 2,141 6.7 -11.7°
